This is the latest recevied weather packets stored in our database for station/object KD4IZ-13. If no packets are shown the sender has not sent any weather packets the latest 10 day(s).
| Time | Temp. | Humidity | Pressure | Rain* | Wind** | Luminosity | Snow |
|---|---|---|---|---|---|---|---|
| 1777742696 | 14.44° C | 49% | 1014.9 hPa | 0 mm | - | 861 W/m² | - |
| 1777742392 | 13.89° C | 49% | 1014.8 hPa | 0 mm | - | 845 W/m² | - |
| 1777742088 | 13.33° C | 51% | 1014.8 hPa | 0 mm | - | 531 W/m² | - |
| 1777741786 | 12.78° C | 51% | 1015 hPa | 0 mm | - | 922 W/m² | - |
| 1777741482 | 13.33° C | 50% | 1014.9 hPa | 0 mm | - | 915 W/m² | - |
| 1777741178 | 12.78° C | 57% | 1015.1 hPa | 0 mm | - | 885 W/m² | - |
| 1777740876 | 11.67° C | 56% | 1015.1 hPa | 0 mm | - | 781 W/m² | - |
| 1777740573 | 11.67° C | 56% | 1015.2 hPa | 0 mm | - | 444 W/m² | - |
| 1777740269 | 12.22° C | 54% | 1015.1 hPa | 0 mm | - | 336 W/m² | - |
| 1777739965 | 11.67° C | 54% | 1015.1 hPa | 0 mm | - | 263 W/m² | - |
| 1777739662 | 12.22° C | 50% | 1015.2 hPa | 0 mm | - | 371 W/m² | - |
| 1777739360 | 12.22° C | 56% | 1015.2 hPa | 0 mm | - | 547 W/m² | - |
| 1777739056 | 12.22° C | 53% | 1015.5 hPa | 0 mm | - | 773 W/m² | - |
| 1777738753 | 12.22° C | 56% | 1015.7 hPa | 0 mm | - | 789 W/m² | - |
| 1777738449 | 12.78° C | 52% | 1015.5 hPa | 0 mm | - | 738 W/m² | - |
| 1777738148 | 12.22° C | 52% | 1015.5 hPa | 0 mm | - | 552 W/m² | - |
| 1777737845 | 11.67° C | 56% | 1015.5 hPa | 0 mm | - | 767 W/m² | - |
| 1777737544 | 11.67° C | 57% | 1015.6 hPa | 0 mm | - | 392 W/m² | - |
| 1777737241 | 11.67° C | 58% | 1015.8 hPa | 0 mm | - | 450 W/m² | - |
| 1777736937 | 12.22° C | 57% | 1015.7 hPa | 0 mm | - | 735 W/m² | - |
| 1777736026 | 11.11° C | 59% | 1016.1 hPa | 0 mm | - | 730 W/m² | - |
| 1777735723 | 10.56° C | 67% | 1016 hPa | 0 mm | - | 512 W/m² | - |
| 1777735420 | 10.56° C | 66% | 1015.7 hPa | 0 mm | - | 340 W/m² | - |
| 1777735118 | 10.56° C | 65% | 1015.8 hPa | 0 mm | - | 334 W/m² | - |
| 1777734814 | 10.56° C | 68% | 1015.6 hPa | 0 mm | - | 347 W/m² | - |
* Rain latest hour (hover to see other rain measurements)
** Current wind speed in m/s (hover to see current wind gust speed)